Location: Stanford
(52.2833°N, 2.4333°W)
Time: 22:01:40
(UTC+00:00)

IRS-1A Rocket - Pass Details

Date: 22 January 2021
Orbit: 851 x 931 km, 99.2° (Epoch: 01 March)

Event Time Altitude Azimuth Distance (km) Brightness Sun altitude
Exits shadow 19:52:12 72° 7° (N) 979 4.4 -29.1°
Drops below altitude 10° 19:57:31 10° 345° (NNW) 2,636 7.0 -29.9°
Sets 19:59:56 0° 345° (NNW) 3,575 7.7 -30.3°
